User: anonymous   Login
Location: Newark
(34.3481°N, 134.0494°E)
Time: 07:33:24
(UTC+00:00)
Language:

Transit 4A - Orbit

View from above orbital plane
View from above orbital plane
View from above satellite
View from above satellite

Ground track
Ground track

The orbit data is extracted from the following two-line orbital elements,

1   116U 61015A   20024.60115401 -.00000067 +00000-0 +71150-5 0  9990
2   116 066.8080 202.3144 0069529 112.2318 248.6155 13.91764763971660
Epoch (UTC): 24 January 2020 14:25:39
Eccentricity: 0.0069529
inclination: 66.8080°
perigee height: 871 km
apogee height: 973 km
right ascension of ascending node: 202.3144°
argument of perigee: 112.2318°
revolutions per day: 13.91764763
mean anomaly at epoch: 248.6155°
orbit number at epoch: 97166

The dashed part of the orbit path shows where the satellite is in the earth's shadow,  

DLR